QPF
0.00 0.00 0.00 0.00 0.00 0.00 0.00 0.00 0.00 0.00 0.01 0.01 0.02 0.02 0.01 0.00 0.00 0.00 0.00 0.00 0.00 0.00 0.00 0.00 0.00 0.00 0.00 0.00 0.00 0.00 0.00 0.00 0.00 0.00 0.00 0.00 0.00 0.00 0.00 0.00 0.00 0.01 0.01 0.01 0.01 0.00 0.00 0.00 0.00
0.00 0.00 0.00 0.00 0.00 0.00 0.00 0.00 0.00 0.00 0.01 0.02 0.02 0.02 0.01 0.00 0.00 0.00 0.00 0.00 0.00 0.00 0.00 0.00 0.00 0.00 0.00 0.00 0.00 0.00 0.00 0.00 0.00 0.00 0.00 0.00 0.00 0.00 0.00 0.00 0.00 0.00 0.01 0.00 0.00 0.00 0.00 0.00 0.00
0.00 0.00 0.00 0.00 0.00 0.00 0.00 0.00 0.00 0.01 0.03 0.03 0.03 0.01 0.00 0.00 0.00 0.00 0.00 0.00 0.00 0.00 0.00 0.00 0.00 0.00 0.00 0.00 0.00 0.00 0.00 0.00 0.00 0.00 0.00 0.00 0.00 0.00 0.00 0.00 0.00 0.00 0.00 0.00 0.00 0.00 0.00 0.00 0.00
0.00 0.00 0.00 0.00 0.00 0.00 0.00 0.00 0.00 0.01 0.04 0.03 0.02 0.01 0.00 0.00 0.00 0.00 0.00 0.00 0.00 0.00 0.00 0.00 0.00 0.00 0.00 0.00 0.00 0.00 0.00 0.00 0.00 0.00 0.00 0.00 0.00 0.00 0.00 0.00 0.00 0.00 0.00 0.00 0.00 0.00 0.00 0.00 0.00
0.00 0.00 0.00 0.00 0.00 0.00 0.00 0.00 0.00 0.01 0.02 0.02 0.01 0.01 0.00 0.00 0.00 0.00 0.00 0.00 0.00 0.00 0.00 0.00 0.00 0.00 0.00 0.00 0.00 0.00 0.00 0.00 0.00 0.00 0.00 0.00 0.00 0.00 0.00 0.00 0.00 0.00 0.00 0.00 0.00 0.00 0.00 0.00 0.00
0.00 0.00 0.00 0.00 0.00 0.00 0.00 0.00 0.00 0.00 0.01 0.01 0.01 0.01 0.00 0.00 0.00 0.00 0.00 0.00 0.00 0.00 0.00 0.00 0.00 0.00 0.00 0.00 0.00 0.00 0.00 0.00 0.00 0.00 0.00 0.00 0.00 0.00 0.00 0.00 0.00 0.00 0.00 0.00 0.00 0.00 0.00 0.00 0.00
0.00 0.00 0.00 0.00 0.00 0.00 0.00 0.00 0.00 0.00 0.01 0.01 0.01 0.00 0.00 0.00 0.00 0.00 0.00 0.00 0.00 0.00 0.00 0.00 0.00 0.00 0.00 0.00 0.00 0.00 0.00 0.00 0.00 0.00 0.00 0.00 0.00 0.00 0.00 0.00 0.00 0.00 0.00 0.00 0.00 0.00 0.00 0.00 0.00
0.00 0.00 0.00 0.00 0.00 0.00 0.00 0.00 0.00 0.00 0.01 0.01 0.01 0.00 0.00 0.00 0.00 0.00 0.00 0.00 0.00 0.00 0.00 0.00 0.00 0.00 0.00 0.00 0.00 0.00 0.00 0.00 0.00 0.00 0.00 0.00 0.00 0.00 0.00 0.00 0.00 0.00 0.00 0.00 0.00 0.00 0.00 0.00 0.00
0.00 0.00 0.00 0.00 0.00 0.00 0.00 0.00 0.00 0.00 0.01 0.01 0.00 0.00 0.00 0.00 0.00 0.00 0.00 0.00 0.00 0.00 0.00 0.00 0.00 0.00 0.00 0.00 0.00 0.00 0.00 0.00 0.00 0.00 0.00 0.00 0.00 0.00 0.00 0.00 0.00 0.00 0.00 0.00 0.00 0.00 0.00 0.00 0.00
0.00 0.00 0.00 0.00 0.00 0.00 0.00 0.00 0.00 0.00 0.01 0.01 0.00 0.00 0.00 0.00 0.00 0.00 0.00 0.00 0.00 0.00 0.00 0.00 0.00 0.00 0.00 0.00 0.00 0.00 0.00 0.00 0.00 0.00 0.00 0.00 0.00 0.00 0.00 0.00 0.00 0.00 0.00 0.00 0.00 0.00 0.00 0.00 0.00
0.00 0.00 0.00 0.00 0.00 0.00 0.00 0.00 0.00 0.00 0.00 0.00 0.00 0.00 0.00 0.00 0.00 0.00 0.00 0.00 0.00 0.00 0.00 0.00 0.00 0.00 0.00 0.00 0.00 0.00 0.00 0.00 0.00 0.00 0.00 0.00 0.00 0.00 0.00 0.00 0.00 0.00 0.00 0.00 0.00 0.00 0.00 0.00 0.00
0.00 0.00 0.00 0.00 0.00 0.00 0.00 0.00 0.00 0.00 0.00 0.00 0.00 0.00 0.00 0.00 0.00 0.00 0.00 0.00 0.00 0.00 0.00 0.00 0.00 0.00 0.00 0.00 0.00 0.00 0.00 0.00 0.00 0.00 0.00 0.00 0.00 0.00 0.00 0.00 0.00 0.00 0.00 0.00 0.00 0.00 0.00 0.00 0.00
0.00 0.00 0.00 0.00 0.00 0.00 0.00 0.00 0.00 0.00 0.00 0.00 0.00 0.00 0.00 0.00 0.00 0.00 0.00 0.00 0.00 0.00 0.00 0.00 0.00 0.00 0.00 0.00 0.00 0.00 0.00 0.00 0.00 0.00 0.00 0.00 0.00 0.00 0.00 0.00 0.00 0.00 0.00 0.00 0.00 0.00 0.00 0.00 0.00
0.00 0.00 0.00 0.00 0.00 0.00 0.00 0.00 0.00 0.00 0.00 0.00 0.00 0.00 0.00 0.00 0.00 0.00 0.00 0.00 0.00 0.00 0.00 0.00 0.00 0.00 0.01 0.00 0.00 0.00 0.00 0.00 0.00 0.00 0.00 0.00 0.00 0.00 0.00 0.01 0.00 0.00 0.00 0.00 0.00 0.01 0.00 0.00 0.00
0.00 0.00 0.00 0.00 0.00 0.00 0.00 0.00 0.00 0.00 0.00 0.00 0.00 0.00 0.00 0.00 0.00 0.00 0.00 0.00 0.00 0.01 0.00 0.00 0.00 0.01 0.01 0.01 0.01 0.01 0.01 0.01 0.00 0.00 0.00 0.01 0.01 0.01 0.01 0.01 0.01 0.01 0.02 0.02 0.02 0.02 0.02 0.01 0.01
0.00 0.00 0.00 0.00 0.00 0.00 0.00 0.00 0.00 0.00 0.00 0.00 0.00 0.00 0.00 0.00 0.00 0.00 0.00 0.00 0.01 0.00 0.00 0.00 0.01 0.01 0.01 0.02 0.04 0.05 0.05 0.03 0.03 0.03 0.04 0.04 0.04 0.04 0.03 0.03 0.03 0.04 0.04 0.05 0.05 0.05 0.05 0.04 0.03
0.00 0.00 0.00 0.00 0.00 0.00 0.00 0.00 0.00 0.00 0.00 0.00 0.00 0.00 0.00 0.00 0.00 0.00 0.00 0.00 0.00 0.00 0.00 0.00 0.01 0.02 0.03 0.05 0.08 0.12 0.12 0.11 0.10 0.10 0.10 0.09 0.08 0.08 0.08 0.09 0.10 0.11 0.11 0.10 0.09 0.09 0.08 0.07 0.06
0.00 0.00 0.00 0.00 0.00 0.00 0.00 0.00 0.00 0.00 0.00 0.00 0.00 0.00 0.00 0.00 0.00 0.00 0.00 0.00 0.00 0.01 0.01 0.01 0.02 0.05 0.07 0.10 0.13 0.17 0.19 0.18 0.18 0.16 0.14 0.13 0.14 0.16 0.18 0.19 0.20 0.19 0.16 0.14 0.13 0.12 0.09 0.07 0.05
0.00 0.00 0.00 0.00 0.00 0.00 0.00 0.00 0.00 0.00 0.00 0.00 0.00 0.00 0.00 0.00 0.00 0.00 0.00 0.00 0.00 0.01 0.01 0.01 0.03 0.06 0.11 0.18 0.26 0.36 0.38 0.33 0.26 0.24 0.24 0.24 0.29 0.34 0.33 0.30 0.26 0.21 0.18 0.17 0.14 0.10 0.07 0.04 0.03
0.00 0.00 0.00 0.00 0.00 0.00 0.00 0.00 0.00 0.00 0.00 0.00 0.00 0.00 0.00 0.00 0.00 0.00 0.00 0.00 0.00 0.02 0.03 0.03 0.03 0.08 0.17 0.31 0.43 0.53 0.56 0.51 0.44 0.37 0.38 0.41 0.42 0.41 0.36 0.31 0.26 0.21 0.16 0.13 0.10 0.08 0.06 0.03 0.02
0.00 0.00 0.00 0.00 0.00 0.00 0.00 0.00 0.00 0.00 0.00 0.00 0.00 0.00 0.00 0.00 0.00 0.00 0.00 0.00 0.01 0.03 0.04 0.04 0.06 0.14 0.28 0.44 0.60 0.66 0.64 0.56 0.49 0.43 0.44 0.45 0.45 0.44 0.40 0.34 0.26 0.18 0.14 0.11 0.08 0.05 0.03 0.01 0.01
0.00 0.00 0.00 0.00 0.00 0.00 0.00 0.00 0.00 0.00 0.00 0.00 0.00 0.00 0.00 0.00 0.00 0.00 0.00 0.01 0.02 0.03 0.04 0.05 0.11 0.24 0.41 0.54 0.63 0.64 0.63 0.58 0.54 0.46 0.45 0.44 0.42 0.41 0.36 0.27 0.19 0.15 0.10 0.07 0.04 0.02 0.01 0.00 0.00
0.00 0.00 0.00 0.00 0.00 0.00 0.00 0.00 0.00 0.00 0.00 0.00 0.00 0.00 0.00 0.00 0.00 0.00 0.00 0.01 0.03 0.04 0.06 0.08 0.16 0.31 0.48 0.60 0.66 0.73 0.74 0.67 0.57 0.48 0.42 0.37 0.31 0.25 0.20 0.14 0.10 0.07 0.04 0.03 0.01 0.01 0.00 0.00 0.00
0.00 0.00 0.00 0.00 0.00 0.00 0.00 0.00 0.00 0.00 0.00 0.00 0.00 0.00 0.00 0.00 0.00 0.00 0.01 0.01 0.03 0.05 0.09 0.14 0.23 0.39 0.54 0.63 0.69 0.69 0.65 0.52 0.40 0.36 0.33 0.27 0.21 0.15 0.12 0.08 0.05 0.03 0.02 0.01 0.01 0.01 0.00 0.01 0.00
0.00 0.00 0.00 0.00 0.00 0.00 0.00 0.00 0.00 0.00 0.00 0.00 0.00 0.01 0.01 0.01 0.01 0.01 0.02 0.04 0.05 0.08 0.13 0.20 0.32 0.46 0.60 0.64 0.59 0.50 0.40 0.31 0.28 0.28 0.24 0.19 0.14 0.10 0.05 0.03 0.02 0.02 0.01 0.01 0.01 0.01 0.00 0.00 0.00
0.00 0.00 0.00 0.00 0.00 0.00 0.00 0.00 0.00 0.01 0.01 0.01 0.01 0.01 0.01 0.01 0.02 0.02 0.04 0.06 0.08 0.12 0.21 0.29 0.39 0.50 0.53 0.46 0.39 0.31 0.25 0.21 0.19 0.15 0.11 0.08 0.06 0.04 0.02 0.01 0.01 0.01 0.00 0.00 0.00 0.00 0.00 0.00 0.00
0.00 0.00 0.00 0.00 0.00 0.00 0.00 0.00 0.00 0.00 0.01 0.01 0.01 0.01 0.01 0.02 0.03 0.04 0.06 0.07 0.10 0.15 0.22 0.28 0.34 0.35 0.30 0.21 0.15 0.12 0.10 0.09 0.08 0.06 0.04 0.03 0.02 0.02 0.01 0.01 0.01 0.00 0.00 0.00 0.00 0.00 0.00 0.00 0.00
0.00 0.00 0.00 0.00 0.00 0.00 0.00 0.00 0.00 0.01 0.01 0.01 0.01 0.02 0.02 0.02 0.03 0.04 0.06 0.09 0.11 0.14 0.15 0.15 0.15 0.12 0.09 0.06 0.04 0.04 0.05 0.05 0.04 0.03 0.02 0.02 0.02 0.01 0.01 0.01 0.01 0.00 0.00 0.00 0.00 0.00 0.00 0.00 0.00
0.00 0.00 0.00 0.00 0.00 0.00 0.00 0.00 0.00 0.01 0.01 0.01 0.02 0.03 0.03 0.04 0.05 0.05 0.06 0.07 0.07 0.06 0.05 0.04 0.03 0.03 0.02 0.02 0.02 0.01 0.02 0.01 0.01 0.01 0.01 0.01 0.01 0.01 0.01 0.01 0.01 0.01 0.01 0.00 0.00 0.00 0.00 0.00 0.00
0.00 0.00 0.00 0.00 0.00 0.00 0.00 0.00 0.00 0.01 0.02 0.02 0.02 0.03 0.03 0.04 0.04 0.05 0.04 0.03 0.02 0.02 0.02 0.02 0.01 0.01 0.01 0.01 0.01 0.01 0.01 0.01 0.01 0.01 0.01 0.01 0.01 0.01 0.01 0.01 0.01 0.01 0.01 0.01 0.00 0.00 0.00 0.00 0.00
MSLP
1011.67 1012.73 1013.92 1015.04 1015.91 1016.40 1016.47 1016.13 1015.53 1014.80 1014.14 1013.66 1013.42 1013.41 1013.55 1013.73 1013.82 1013.76 1013.52 1013.17 1012.78 1012.46 1012.29 1012.34 1012.59 1012.99 1013.44 1013.87 1014.21 1014.44 1014.56 1014.63 1014.72 1014.87 1015.12 1015.45 1015.83 1016.20 1016.52 1016.73 1016.86 1016.90 1016.92 1016.95 1017.04 1017.18 1017.37 1017.59 1017.78
1012.16 1013.38 1014.65 1015.76 1016.53 1016.83 1016.66 1016.06 1015.20 1014.26 1013.43 1012.84 1012.54 1012.52 1012.67 1012.89 1013.04 1013.05 1012.90 1012.63 1012.34 1012.12 1012.06 1012.19 1012.52 1012.98 1013.48 1013.95 1014.33 1014.59 1014.74 1014.85 1014.97 1015.15 1015.41 1015.72 1016.07 1016.39 1016.64 1016.80 1016.88 1016.89 1016.90 1016.94 1017.04 1017.20 1017.41 1017.63 1017.81
1012.73 1014.06 1015.35 1016.39 1017.02 1017.13 1016.73 1015.92 1014.87 1013.78 1012.84 1012.19 1011.86 1011.83 1012.00 1012.23 1012.42 1012.47 1012.38 1012.19 1011.99 1011.86 1011.88 1012.10 1012.49 1012.99 1013.53 1014.02 1014.41 1014.68 1014.86 1015.00 1015.14 1015.33 1015.58 1015.87 1016.18 1016.44 1016.64 1016.74 1016.78 1016.78 1016.79 1016.85 1016.98 1017.18 1017.42 1017.65 1017.83
1013.35 1014.71 1015.95 1016.88 1017.34 1017.27 1016.69 1015.72 1014.55 1013.39 1012.42 1011.76 1011.44 1011.42 1011.59 1011.84 1012.03 1012.11 1012.06 1011.93 1011.79 1011.74 1011.83 1012.10 1012.53 1013.05 1013.58 1014.06 1014.44 1014.71 1014.90 1015.04 1015.19 1015.39 1015.63 1015.91 1016.18 1016.40 1016.55 1016.62 1016.63 1016.63 1016.66 1016.76 1016.94 1017.18 1017.45 1017.69 1017.88
1013.96 1015.28 1016.41 1017.18 1017.46 1017.21 1016.50 1015.44 1014.24 1013.09 1012.16 1011.54 1011.27 1011.28 1011.46 1011.70 1011.90 1011.98 1011.95 1011.86 1011.78 1011.78 1011.92 1012.22 1012.65 1013.16 1013.66 1014.10 1014.44 1014.69 1014.86 1014.99 1015.15 1015.36 1015.60 1015.87 1016.12 1016.32 1016.45 1016.50 1016.51 1016.53 1016.59 1016.72 1016.94 1017.22 1017.52 1017.78 1017.97
1014.51 1015.71 1016.68 1017.25 1017.34 1016.94 1016.13 1015.05 1013.88 1012.81 1011.98 1011.46 1011.26 1011.32 1011.52 1011.77 1011.96 1012.04 1012.03 1011.97 1011.93 1011.97 1012.14 1012.44 1012.85 1013.31 1013.75 1014.13 1014.41 1014.60 1014.75 1014.88 1015.05 1015.26 1015.52 1015.80 1016.06 1016.26 1016.39 1016.45 1016.48 1016.52 1016.61 1016.77 1017.02 1017.32 1017.63 1017.89 1018.08
1014.93 1015.96 1016.71 1017.05 1016.95 1016.42 1015.56 1014.50 1013.42 1012.48 1011.79 1011.40 1011.30 1011.42 1011.65 1011.90 1012.09 1012.19 1012.20 1012.17 1012.16 1012.24 1012.42 1012.72 1013.09 1013.48 1013.84 1014.13 1014.34 1014.49 1014.60 1014.74 1014.92 1015.16 1015.45 1015.76 1016.04 1016.26 1016.42 1016.50 1016.55 1016.61 1016.72 1016.90 1017.16 1017.45 1017.75 1018.00 1018.17
1015.19 1016.00 1016.50 1016.61 1016.32 1015.68 1014.79 1013.79 1012.83 1012.04 1011.50 1011.25 1011.25 1011.43 1011.70 1011.97 1012.18 1012.29 1012.33 1012.35 1012.39 1012.50 1012.69 1012.97 1013.29 1013.61 1013.89 1014.10 1014.25 1014.35 1014.45 1014.58 1014.79 1015.07 1015.40 1015.75 1016.07 1016.34 1016.52 1016.64 1016.71 1016.80 1016.91 1017.09 1017.33 1017.60 1017.86 1018.08 1018.21
1015.27 1015.84 1016.08 1015.96 1015.50 1014.76 1013.87 1012.94 1012.10 1011.46 1011.07 1010.95 1011.04 1011.28 1011.58 1011.88 1012.10 1012.25 1012.35 1012.42 1012.51 1012.66 1012.87 1013.13 1013.41 1013.67 1013.88 1014.02 1014.12 1014.19 1014.29 1014.44 1014.68 1015.00 1015.38 1015.77 1016.14 1016.45 1016.67 1016.82 1016.93 1017.02 1017.14 1017.30 1017.51 1017.73 1017.95 1018.11 1018.20
1015.17 1015.50 1015.50 1015.17 1014.57 1013.77 1012.88 1012.02 1011.30 1010.79 1010.52 1010.49 1010.65 1010.93 1011.26 1011.57 1011.83 1012.02 1012.17 1012.31 1012.45 1012.64 1012.87 1013.13 1013.38 1013.60 1013.76 1013.87 1013.95 1014.02 1014.13 1014.31 1014.59 1014.95 1015.37 1015.80 1016.20 1016.55 1016.81 1017.00 1017.13 1017.24 1017.36 1017.51 1017.68 1017.86 1018.02 1018.13 1018.18
1014.94 1015.05 1014.84 1014.35 1013.63 1012.80 1011.94 1011.15 1010.52 1010.11 1009.93 1009.95 1010.14 1010.43 1010.76 1011.08 1011.36 1011.60 1011.80 1011.99 1012.20 1012.43 1012.68 1012.94 1013.18 1013.38 1013.53 1013.64 1013.73 1013.83 1013.97 1014.19 1014.50 1014.90 1015.34 1015.79 1016.22 1016.59 1016.89 1017.12 1017.29 1017.43 1017.56 1017.70 1017.85 1018.00 1018.11 1018.18 1018.20
1014.63 1014.56 1014.19 1013.58 1012.82 1011.98 1011.16 1010.44 1009.89 1009.54 1009.39 1009.42 1009.60 1009.86 1010.17 1010.48 1010.77 1011.03 1011.27 1011.51 1011.75 1012.01 1012.28 1012.55 1012.79 1013.01 1013.18 1013.33 1013.46 1013.62 1013.81 1014.08 1014.42 1014.83 1015.28 1015.74 1016.18 1016.57 1016.89 1017.16 1017.37 1017.56 1017.73 1017.89 1018.04 1018.17 1018.27 1018.31 1018.31
1014.30 1014.10 1013.64 1012.98 1012.20 1011.40 1010.64 1009.99 1009.49 1009.16 1009.01 1009.01 1009.13 1009.33 1009.59 1009.86 1010.12 1010.39 1010.64 1010.90 1011.16 1011.43 1011.71 1011.99 1012.26 1012.51 1012.74 1012.95 1013.17 1013.40 1013.67 1013.99 1014.36 1014.77 1015.21 1015.65 1016.07 1016.46 1016.81 1017.12 1017.39 1017.64 1017.87 1018.08 1018.27 1018.41 1018.51 1018.56 1018.55
1014.02 1013.74 1013.24 1012.59 1011.86 1011.13 1010.44 1009.85 1009.38 1009.05 1008.85 1008.78 1008.81 1008.92 1009.09 1009.29 1009.52 1009.75 1009.99 1010.24 1010.49 1010.75 1011.03 1011.32 1011.62 1011.92 1012.23 1012.55 1012.87 1013.21 1013.57 1013.94 1014.34 1014.74 1015.15 1015.55 1015.94 1016.32 1016.68 1017.03 1017.36 1017.69 1018.00 1018.28 1018.52 1018.71 1018.84 1018.91 1018.92
1013.83 1013.52 1013.03 1012.43 1011.79 1011.15 1010.55 1010.01 1009.55 1009.18 1008.91 1008.73 1008.65 1008.64 1008.71 1008.83 1008.99 1009.18 1009.38 1009.59 1009.81 1010.05 1010.31 1010.61 1010.94 1011.32 1011.73 1012.17 1012.63 1013.09 1013.54 1013.98 1014.39 1014.78 1015.15 1015.50 1015.84 1016.19 1016.55 1016.93 1017.32 1017.72 1018.11 1018.48 1018.79 1019.05 1019.23 1019.33 1019.36
1013.74 1013.44 1013.00 1012.50 1011.96 1011.43 1010.90 1010.41 1009.94 1009.51 1009.13 1008.83 1008.61 1008.48 1008.44 1008.47 1008.56 1008.69 1008.84 1009.01 1009.18 1009.39 1009.63 1009.93 1010.31 1010.76 1011.28 1011.86 1012.46 1013.05 1013.61 1014.12 1014.55 1014.92 1015.24 1015.53 1015.82 1016.13 1016.47 1016.86 1017.30 1017.76 1018.22 1018.66 1019.05 1019.37 1019.60 1019.75 1019.82
1013.75 1013.48 1013.13 1012.73 1012.32 1011.88 1011.43 1010.95 1010.44 1009.93 1009.44 1009.00 1008.64 1008.38 1008.23 1008.18 1008.21 1008.29 1008.39 1008.51 1008.65 1008.82 1009.04 1009.35 1009.77 1010.30 1010.93 1011.64 1012.38 1013.11 1013.78 1014.36 1014.83 1015.19 1015.46 1015.70 1015.92 1016.17 1016.49 1016.87 1017.32 1017.82 1018.33 1018.82 1019.26 1019.63 1019.91 1020.11 1020.22
1013.82 1013.60 1013.35 1013.08 1012.78 1012.44 1012.04 1011.55 1010.99 1010.37 1009.74 1009.15 1008.66 1008.28 1008.05 1007.93 1007.92 1007.96 1008.04 1008.13 1008.24 1008.38 1008.59 1008.90 1009.35 1009.96 1010.69 1011.53 1012.40 1013.26 1014.03 1014.68 1015.19 1015.55 1015.80 1015.98 1016.15 1016.35 1016.61 1016.97 1017.40 1017.90 1018.42 1018.93 1019.40 1019.80 1020.12 1020.35 1020.52
1013.87 1013.75 1013.61 1013.48 1013.30 1013.04 1012.66 1012.15 1011.50 1010.76 1009.99 1009.26 1008.64 1008.16 1007.85 1007.70 1007.67 1007.71 1007.79 1007.88 1007.97 1008.10 1008.30 1008.62 1009.10 1009.75 1010.56 1011.50 1012.48 1013.44 1014.31 1015.04 1015.59 1015.97 1016.20 1016.36 1016.48 1016.63 1016.85 1017.16 1017.56 1018.02 1018.52 1019.01 1019.48 1019.89 1020.22 1020.49 1020.69
1013.87 1013.86 1013.87 1013.88 1013.82 1013.63 1013.27 1012.71 1011.97 1011.10 1010.18 1009.32 1008.58 1008.02 1007.67 1007.50 1007.48 1007.55 1007.66 1007.76 1007.87 1007.99 1008.19 1008.51 1009.00 1009.68 1010.53 1011.52 1012.58 1013.62 1014.57 1015.36 1015.96 1016.37 1016.62 1016.77 1016.88 1016.99 1017.17 1017.43 1017.77 1018.18 1018.63 1019.08 1019.51 1019.91 1020.24 1020.53 1020.76
1013.74 1013.89 1014.08 1014.24 1014.31 1014.19 1013.84 1013.24 1012.40 1011.41 1010.36 1009.37 1008.53 1007.91 1007.53 1007.38 1007.40 1007.51 1007.67 1007.81 1007.94 1008.08 1008.27 1008.58 1009.05 1009.72 1010.58 1011.58 1012.67 1013.75 1014.75 1015.59 1016.24 1016.70 1016.99 1017.16 1017.28 1017.39 1017.54 1017.76 1018.05 1018.40 1018.78 1019.17 1019.56 1019.91 1020.24 1020.53 1020.80
1013.49 1013.83 1014.21 1014.55 1014.75 1014.71 1014.38 1013.74 1012.83 1011.72 1010.56 1009.47 1008.56 1007.90 1007.52 1007.39 1007.46 1007.64 1007.85 1008.05 1008.22 1008.37 1008.55 1008.83 1009.26 1009.89 1010.70 1011.67 1012.73 1013.81 1014.82 1015.70 1016.39 1016.91 1017.26 1017.48 1017.64 1017.77 1017.93 1018.13 1018.38 1018.67 1018.99 1019.32 1019.65 1019.97 1020.27 1020.56 1020.84
1013.11 1013.66 1014.25 1014.77 1015.12 1015.18 1014.88 1014.23 1013.26 1012.08 1010.84 1009.68 1008.73 1008.05 1007.68 1007.59 1007.71 1007.96 1008.24 1008.49 1008.69 1008.85 1009.02 1009.25 1009.63 1010.18 1010.91 1011.80 1012.80 1013.83 1014.82 1015.70 1016.43 1016.99 1017.41 1017.71 1017.93 1018.11 1018.30 1018.51 1018.74 1019.00 1019.27 1019.55 1019.83 1020.10 1020.38 1020.66 1020.94
1012.64 1013.40 1014.20 1014.91 1015.40 1015.56 1015.32 1014.68 1013.70 1012.49 1011.22 1010.03 1009.06 1008.39 1008.05 1008.00 1008.18 1008.49 1008.83 1009.12 1009.35 1009.52 1009.67 1009.86 1010.16 1010.61 1011.24 1012.02 1012.92 1013.87 1014.80 1015.66 1016.39 1017.00 1017.48 1017.85 1018.15 1018.40 1018.64 1018.88 1019.12 1019.37 1019.61 1019.85 1020.09 1020.33 1020.58 1020.84 1021.11
1012.14 1013.08 1014.06 1014.93 1015.55 1015.81 1015.64 1015.05 1014.09 1012.91 1011.65 1010.49 1009.55 1008.92 1008.62 1008.62 1008.86 1009.22 1009.60 1009.94 1010.19 1010.37 1010.50 1010.64 1010.87 1011.22 1011.73 1012.38 1013.16 1013.99 1014.84 1015.65 1016.37 1016.99 1017.51 1017.95 1018.32 1018.65 1018.95 1019.23 1019.50 1019.75 1019.99 1020.21 1020.42 1020.63 1020.85 1021.08 1021.33
1011.67 1012.74 1013.84 1014.83 1015.55 1015.89 1015.80 1015.27 1014.39 1013.28 1012.10 1011.01 1010.15 1009.59 1009.35 1009.42 1009.70 1010.10 1010.53 1010.90 1011.18 1011.36 1011.48 1011.59 1011.75 1012.01 1012.41 1012.94 1013.58 1014.29 1015.03 1015.76 1016.43 1017.04 1017.58 1018.06 1018.49 1018.88 1019.24 1019.57 1019.87 1020.14 1020.38 1020.58 1020.78 1020.96 1021.15 1021.35 1021.56
1011.27 1012.40 1013.56 1014.59 1015.37 1015.77 1015.75 1015.31 1014.53 1013.54 1012.49 1011.54 1010.79 1010.34 1010.19 1010.32 1010.66 1011.10 1011.56 1011.96 1012.26 1012.45 1012.57 1012.66 1012.79 1012.98 1013.29 1013.70 1014.22 1014.81 1015.43 1016.05 1016.66 1017.22 1017.75 1018.24 1018.69 1019.12 1019.52 1019.89 1020.22 1020.50 1020.75 1020.95 1021.12 1021.28 1021.44 1021.60 1021.76
1011.00 1012.10 1013.23 1014.24 1015.01 1015.44 1015.47 1015.13 1014.49 1013.66 1012.78 1012.00 1011.43 1011.11 1011.08 1011.29 1011.68 1012.16 1012.64 1013.06 1013.38 1013.60 1013.73 1013.83 1013.94 1014.10 1014.33 1014.66 1015.07 1015.54 1016.04 1016.56 1017.07 1017.57 1018.05 1018.51 1018.96 1019.40 1019.81 1020.20 1020.54 1020.84 1021.08 1021.28 1021.43 1021.57 1021.69 1021.80 1021.91
1010.87 1011.87 1012.89 1013.81 1014.52 1014.93 1015.00 1014.75 1014.26 1013.62 1012.96 1012.40 1012.02 1011.87 1011.97 1012.27 1012.72 1013.23 1013.73 1014.16 1014.50 1014.74 1014.90 1015.02 1015.13 1015.28 1015.48 1015.75 1016.08 1016.45 1016.85 1017.26 1017.67 1018.08 1018.49 1018.91 1019.32 1019.74 1020.14 1020.52 1020.85 1021.14 1021.38 1021.56 1021.69 1021.79 1021.87 1021.93 1021.98
1010.89 1011.73 1012.59 1013.37 1013.96 1014.32 1014.41 1014.25 1013.91 1013.48 1013.06 1012.73 1012.57 1012.61 1012.85 1013.25 1013.75 1014.28 1014.79 1015.23 1015.58 1015.83 1016.02 1016.16 1016.30 1016.45 1016.65 1016.88 1017.15 1017.44 1017.75 1018.07 1018.39 1018.71 1019.05 1019.40 1019.76 1020.13 1020.50 1020.86 1021.17 1021.44 1021.65 1021.80 1021.90 1021.96 1021.99 1022.00 1021.99
Thickness
5778 5779 5776 5768 5748 5727 5731 5748 5762 5769 5776 5787 5790 5785 5778 5773 5766 5764 5782 5790 5788 5783 5778 5774 5770 5768 5766 5764 5762 5760 5758 5757 5755 5754 5753 5752 5750 5749 5748 5747 5746 5745 5745 5744 5744 5743 5742 5741 5740
5778 5776 5768 5753 5728 5714 5727 5751 5761 5771 5784 5791 5791 5787 5781 5778 5782 5781 5784 5787 5786 5782 5777 5774 5770 5767 5765 5762 5760 5757 5755 5754 5752 5751 5749 5748 5746 5745 5744 5744 5743 5742 5741 5741 5740 5739 5738 5737 5737
5776 5774 5754 5736 5722 5719 5737 5759 5768 5780 5791 5790 5786 5787 5783 5780 5783 5784 5788 5788 5785 5780 5776 5773 5770 5767 5764 5762 5759 5756 5754 5752 5750 5748 5746 5745 5743 5742 5741 5741 5740 5739 5738 5737 5736 5735 5735 5734 5733
5770 5757 5743 5728 5725 5735 5748 5764 5772 5778 5787 5791 5786 5780 5786 5793 5790 5790 5790 5788 5784 5779 5776 5773 5770 5767 5764 5761 5758 5756 5753 5751 5748 5746 5745 5743 5741 5740 5739 5738 5737 5736 5735 5734 5733 5732 5731 5731 5730
5761 5743 5728 5719 5728 5743 5756 5767 5774 5775 5781 5787 5785 5776 5779 5791 5795 5793 5790 5788 5784 5779 5776 5773 5770 5767 5763 5761 5758 5755 5752 5750 5747 5745 5743 5741 5740 5738 5737 5736 5735 5734 5733 5731 5730 5729 5728 5727 5727
5741 5731 5714 5713 5730 5747 5760 5772 5775 5776 5781 5786 5783 5774 5777 5789 5791 5790 5790 5787 5784 5780 5776 5773 5770 5766 5763 5760 5758 5755 5752 5749 5746 5744 5741 5739 5738 5736 5735 5733 5732 5731 5729 5728 5727 5725 5724 5724 5724
5733 5722 5715 5722 5731 5744 5763 5775 5775 5777 5779 5785 5788 5773 5776 5785 5790 5791 5789 5785 5782 5779 5776 5773 5770 5766 5763 5760 5757 5754 5751 5749 5746 5743 5740 5738 5736 5734 5732 5731 5730 5728 5726 5725 5724 5722 5721 5721 5721
5741 5725 5722 5723 5733 5745 5767 5776 5782 5782 5783 5795 5793 5776 5775 5788 5792 5789 5785 5782 5779 5776 5774 5772 5769 5767 5763 5760 5757 5753 5750 5748 5745 5742 5739 5737 5734 5732 5730 5729 5727 5725 5723 5722 5720 5719 5718 5718 5717
5743 5718 5713 5726 5737 5751 5767 5770 5781 5792 5791 5794 5796 5794 5796 5797 5791 5784 5779 5776 5775 5774 5773 5771 5769 5766 5763 5760 5756 5753 5749 5746 5743 5741 5738 5735 5733 5730 5728 5726 5724 5722 5720 5718 5717 5715 5714 5714 5714
5732 5713 5722 5740 5751 5759 5764 5769 5777 5783 5784 5788 5791 5796 5800 5795 5788 5782 5778 5776 5775 5774 5773 5771 5769 5766 5763 5760 5756 5752 5749 5745 5742 5740 5737 5734 5731 5729 5726 5724 5722 5720 5718 5715 5713 5712 5711 5710 5709
5732 5725 5735 5747 5758 5762 5763 5770 5781 5779 5777 5788 5791 5792 5794 5790 5786 5784 5783 5783 5782 5779 5776 5773 5771 5767 5764 5761 5757 5753 5749 5745 5741 5738 5735 5732 5729 5726 5724 5721 5719 5717 5715 5712 5710 5708 5707 5706 5705
5730 5736 5743 5753 5762 5761 5763 5771 5776 5781 5792 5805 5805 5801 5795 5789 5788 5788 5788 5787 5784 5780 5778 5776 5773 5769 5765 5762 5758 5753 5748 5744 5741 5737 5734 5730 5727 5723 5721 5719 5716 5714 5711 5708 5706 5704 5702 5701 5700
5731 5738 5748 5754 5757 5759 5764 5767 5775 5786 5802 5806 5805 5799 5795 5793 5793 5793 5793 5791 5787 5783 5781 5779 5775 5771 5767 5762 5758 5753 5748 5744 5740 5736 5732 5729 5725 5722 5719 5716 5713 5711 5707 5705 5702 5699 5697 5695 5694
5737 5740 5746 5751 5755 5762 5764 5769 5774 5790 5802 5801 5799 5797 5796 5795 5795 5792 5791 5791 5789 5786 5784 5782 5777 5773 5768 5762 5757 5753 5748 5743 5739 5735 5731 5727 5723 5719 5716 5713 5710 5707 5704 5700 5697 5694 5691 5688 5686
5738 5736 5740 5749 5755 5762 5764 5763 5773 5792 5797 5794 5794 5796 5795 5796 5796 5795 5797 5796 5794 5791 5787 5783 5778 5773 5766 5761 5755 5750 5745 5740 5735 5731 5726 5722 5719 5715 5712 5708 5705 5702 5698 5695 5691 5687 5684 5681 5678
5730 5726 5723 5741 5752 5759 5756 5749 5773 5787 5787 5785 5788 5790 5792 5795 5798 5800 5800 5798 5796 5792 5788 5784 5779 5772 5764 5757 5751 5745 5740 5734 5729 5725 5721 5717 5714 5710 5706 5702 5699 5695 5691 5688 5683 5679 5675 5672 5669
5708 5708 5717 5731 5747 5750 5749 5747 5767 5779 5779 5779 5782 5785 5789 5791 5795 5800 5801 5800 5797 5794 5789 5783 5778 5771 5763 5754 5746 5740 5735 5730 5725 5719 5715 5711 5708 5703 5698 5695 5691 5688 5684 5679 5676 5671 5667 5663 5661
5696 5706 5713 5720 5736 5739 5738 5744 5759 5770 5771 5774 5778 5781 5784 5788 5797 5803 5802 5800 5797 5793 5788 5783 5776 5769 5760 5751 5741 5733 5726 5721 5718 5713 5710 5705 5700 5696 5691 5686 5683 5679 5676 5670 5666 5662 5657 5653 5651
5705 5706 5707 5716 5731 5732 5732 5736 5751 5763 5765 5768 5772 5775 5780 5789 5800 5798 5798 5797 5794 5790 5785 5780 5773 5765 5756 5746 5736 5726 5717 5713 5708 5704 5700 5697 5694 5689 5684 5679 5674 5670 5666 5662 5657 5653 5648 5644 5641
5697 5697 5701 5712 5725 5727 5725 5730 5748 5759 5762 5767 5771 5774 5778 5784 5787 5789 5791 5791 5789 5786 5781 5775 5768 5761 5753 5745 5736 5725 5714 5705 5698 5692 5689 5687 5685 5682 5676 5671 5666 5662 5657 5652 5649 5645 5639 5633 5630
5688 5690 5697 5701 5709 5715 5717 5716 5734 5753 5759 5763 5768 5772 5775 5778 5781 5783 5783 5783 5782 5778 5775 5770 5763 5754 5746 5738 5727 5716 5703 5695 5688 5683 5679 5678 5676 5673 5668 5664 5659 5654 5650 5644 5639 5635 5631 5624 5618
5679 5695 5697 5698 5691 5683 5699 5683 5716 5736 5742 5752 5757 5761 5766 5772 5776 5778 5777 5776 5773 5770 5767 5761 5754 5745 5736 5728 5717 5709 5697 5687 5680 5675 5671 5668 5665 5662 5658 5654 5650 5644 5640 5634 5629 5624 5620 5615 5608
5688 5698 5694 5692 5686 5678 5684 5678 5697 5722 5732 5742 5748 5752 5758 5764 5767 5769 5768 5766 5762 5759 5755 5749 5741 5733 5725 5718 5710 5702 5692 5682 5674 5666 5661 5658 5655 5652 5648 5644 5639 5634 5628 5622 5617 5613 5608 5602 5596
5693 5687 5677 5667 5664 5662 5678 5670 5683 5708 5721 5730 5738 5744 5748 5753 5756 5756 5755 5753 5750 5746 5741 5735 5728 5721 5714 5707 5699 5690 5682 5672 5665 5658 5652 5647 5645 5642 5638 5632 5628 5622 5616 5611 5606 5601 5595 5589 5583
5682 5662 5643 5648 5641 5653 5680 5675 5682 5707 5717 5721 5727 5732 5737 5741 5742 5742 5740 5738 5735 5731 5727 5721 5716 5708 5702 5696 5689 5681 5672 5664 5657 5651 5645 5639 5634 5629 5625 5620 5616 5611 5605 5599 5594 5588 5582 5576 5570
5671 5663 5643 5639 5643 5654 5673 5672 5686 5703 5711 5717 5720 5722 5725 5726 5726 5726 5724 5722 5719 5716 5712 5708 5702 5696 5690 5685 5679 5670 5661 5653 5646 5642 5636 5629 5624 5618 5613 5608 5603 5597 5592 5586 5580 5574 5568 5562 5556
5670 5662 5672 5653 5651 5651 5659 5674 5686 5697 5700 5705 5708 5709 5709 5709 5709 5709 5707 5705 5702 5699 5695 5691 5686 5680 5673 5669 5663 5655 5648 5641 5635 5629 5623 5617 5611 5606 5599 5593 5588 5582 5576 5571 5565 5558 5552 5546 5540
5685 5672 5653 5645 5636 5638 5656 5665 5664 5678 5685 5691 5694 5695 5695 5695 5694 5692 5690 5687 5685 5682 5678 5674 5671 5664 5659 5653 5647 5639 5632 5627 5622 5616 5609 5603 5597 5591 5584 5577 5571 5565 5559 5554 5548 5541 5535 5529 5523
5672 5668 5659 5647 5650 5641 5640 5651 5670 5672 5679 5681 5682 5683 5681 5680 5678 5676 5673 5670 5668 5664 5661 5657 5653 5648 5642 5636 5630 5624 5618 5613 5607 5601 5595 5588 5581 5575 5568 5561 5554 5548 5542 5537 5531 5524 5518 5512 5506
5677 5669 5656 5650 5648 5647 5645 5646 5668 5672 5676 5676 5673 5671 5668 5665 5663 5661 5658 5655 5652 5648 5644 5640 5636 5631 5626 5621 5616 5609 5604 5598 5591 5584 5577 5571 5564 5558 5551 5544 5538 5531 5525 5519 5514 5508 5501 5496 5491